TimePST,TemperatureF,Dew PointF,Humidity,Sea Level PressureIn,VisibilityMPH,Wind Direction,Wind SpeedMPH,Gust SpeedMPH,PrecipitationIn,Events,Conditions,WindDirDegrees,DateUTC
1:53 AM,60.1,43.0,53,30.01,10.0,Calm,Calm,-,N/A,,Clear,0,2013-03-05 09:53:00
2:53 AM,57.9,43.0,58,30.00,10.0,Calm,Calm,-,N/A,,Clear,0,2013-03-05 10:53:00
5:53 AM,59.0,41.0,51,30.02,10.0,NNW,10.4,-,N/A,,Clear,330,2013-03-05 13:53:00
6:53 AM,57.9,42.1,56,30.03,10.0,NNW,9.2,-,N/A,,Clear,330,2013-03-05 14:53:00
7:53 AM,57.0,45.0,64,30.04,10.0,Calm,Calm,-,N/A,,Clear,0,2013-03-05 15:53:00
8:53 AM,64.0,44.1,48,30.04,10.0,Calm,Calm,-,N/A,,Clear,0,2013-03-05 16:53:00
9:53 AM,71.1,37.9,30,30.03,10.0,Calm,Calm,-,N/A,,Scattered Clouds,0,2013-03-05 17:53:00
10:53 AM,75.0,39.0,27,30.02,10.0,Variable,3.5,-,N/A,,Clear,0,2013-03-05 18:53:00
11:53 AM,75.0,37.9,26,30.00,10.0,SSE,5.8,-,N/A,,Clear,150,2013-03-05 19:53:00
12:53 PM,75.9,39.0,26,29.97,10.0,East,8.1,-,N/A,,Clear,90,2013-03-05 20:53:00
1:53 PM,77.0,37.9,24,29.94,10.0,ESE,9.2,16.1,N/A,,Scattered Clouds,120,2013-03-05 21:53:00
2:53 PM,78.1,37.9,24,29.92,10.0,ESE,5.8,16.1,N/A,,Clear,110,2013-03-05 22:53:00
3:53 PM,79.0,37.0,22,29.91,10.0,East,8.1,-,N/A,,Partly Cloudy,90,2013-03-05 23:53:00
4:53 PM,75.9,37.9,25,29.90,10.0,East,6.9,-,N/A,,Clear,100,2013-03-06 00:53:00
5:53 PM,73.0,44.1,35,29.91,10.0,NNW,10.4,-,N/A,,Clear,330,2013-03-06 01:53:00
6:53 PM,71.1,44.1,38,29.92,10.0,NNW,11.5,18.4,N/A,,Clear,340,2013-03-06 02:53:00
7:53 PM,68.0,45.0,43,29.93,10.0,NW,15.0,-,N/A,,Clear,320,2013-03-06 03:53:00
8:53 PM,66.9,43.0,42,29.93,10.0,NW,8.1,-,N/A,,Clear,320,2013-03-06 04:53:00
9:53 PM,64.9,43.0,45,29.92,10.0,NW,9.2,-,N/A,,Clear,310,2013-03-06 05:53:00
10:53 PM,62.1,43.0,50,29.92,10.0,NW,13.8,25.3,N/A,,Clear,310,2013-03-06 06:53:00
11:53 PM,62.1,43.0,50,29.92,10.0,NW,20.7,28.8,N/A,,Clear,310,2013-03-06 07:53:00